USTRANSCOM 7655


PGUM
Guam International Airport
Guam, GU
PHNL
Daniel K Inouye International Airport
Honolulu, US

Activity Log

Date Flight Route Aircraft Duration
08/15/2019 CMB855 DEWSS A450 NATIE A450 BRIUN NONNI BOOKE BOOKE8 B752 7h 53m

Route Details

Aircraft Information
Primary: Boeing 757-200SF
Backup: Not Available
Route Data
Distance: 3303nm
Sched. Duration: 6h 51m
Avg. Duration: 7h 53m (+101m)
Times Flown: 1
Recm'd Route: DEWSS A450 NATIE A450 BRIUN NONNI BOOKE BOOKE8
Planned Altitude: 33,000ft
Origin Wx: PGUM 251254Z COR 11009KT 10SM FEW075 FEW110 24/22 A2985 RMK AO2 RAB1155E35 SLP099 P0013 T02440222
Dest. Wx: PHNL 251253Z 35004KT 10SM FEW025 22/21 A2993 RMK AO2 SLP134 T02220206 $
Notes: USTRANSCOM CONTRACT FLIGHT | PAYLOAD RESTRICTED | ETOPS

Financial History
Total Freight: 51,038lbs
Average Load: 51,038lbs/flt
Fuel Used: 64,360lbs
Avg. Fuel Used: 64,360lbs/flt
Fuel Expense: $51,488
Avg. Fuel Expense: $51,488
Avg. Fuel Cost: $0.80/lbs
Total Gross Income: $268,460
Pilot Pay: $149
Total Expenses: $29,046
Total Revenue: $186,121
Average Revenue: $268,459.88